Weather History for TJNR - December, 2013

Change the Weather History Date:

Sunday, December 15, 2013

  Actual Average Record
Temperature  
Mean Temperature 81 °F -  
Max Temperature 84 °F 81 °F 84 °F (1997)
Min Temperature 78 °F 71 °F 46 °F (1999)
Cooling Degree Days 16    
Growing Degree Days 31 (Base 50)    
Moisture  
Dew Point -    
Average Humidity    
Maximum Humidity    
Minimum Humidity    
Precipitation  
Precipitation 0.00 in - - ()
Sea Level Pressure  
Sea Level Pressure 30.09 in    
Wind  
Wind Speed 11 mph (East)    
Max Wind Speed 18 mph    
Max Gust Speed 28 mph    
Visibility 9 miles    
Events      
Averages and records for this station are not official NWS values.
T = Trace of Precipitation, MM = Missing Value Source: NWS Daily Summary

Daily Weather History Graph

Daily Weather History Graph

Search for Another Location

Airport or City:

Trip Planner

Search our weather history database for the weather conditions in past years. The results will help you decide how hot, cold, wet, or windy it might be!

Date:

Astronomy

Dec. 15, 2013 Rise Set
Actual Time 6:46 AM AST 5:49 PM AST
Civil Twilight 6:22 AM AST 6:12 PM AST
Nautical Twilight 5:55 AM AST 6:40 PM AST
Astronomical Twilight 5:28 AM AST 7:07 PM AST
Moon 4:41 PM AST (12/15) 5:09 AM AST (12/15)
Length of Visible Light 11h 50m
Length of Day
11h 02m
Waxing Gibbous, 97% of the Moon is Illuminated
Dec 15
Waxing Gibbous
Dec 17
Full
Dec 25
Last Quarter
Jan 1
New
Jan 7
First Quarter

Hourly Weather History & Observations

Time (AST) Temp. Dew Point Humidity Pressure Visibility Wind Dir Wind Speed Gust Speed Precip Events Conditions
12:53 AM 80.1 °F - N/A% 30.09 in 10.0 mi East 10.4 mph 19.6 mph N/A   Mostly Cloudy
1:53 AM 80.1 °F - N/A% 30.07 in 10.0 mi East 13.8 mph 23.0 mph N/A   Scattered Clouds
2:53 AM 80.1 °F - N/A% 30.06 in 10.0 mi East 10.4 mph 21.9 mph N/A   Scattered Clouds
3:53 AM 81.0 °F - N/A% 30.05 in 10.0 mi East 8.1 mph - N/A   Mostly Cloudy
4:53 AM 81.0 °F - N/A% 30.06 in 10.0 mi East 9.2 mph 17.3 mph N/A   Overcast
5:53 AM 81.0 °F - N/A% 30.07 in 10.0 mi East 8.1 mph - N/A   Overcast
6:53 AM 78.1 °F - N/A% 30.09 in 8.0 mi East 8.1 mph - N/A   Scattered Clouds
7:53 AM 80.1 °F - N/A% 30.12 in 10.0 mi ENE 5.8 mph - N/A   Partly Cloudy
9:46 AM 78.8 °F - N/A% 30.16 in 1.8 mi ESE 13.8 mph 25.3 mph N/A   Mostly Cloudy
9:53 AM 78.1 °F - N/A% 30.16 in 1.8 mi East 8.1 mph 25.3 mph N/A   Overcast
9:55 AM 78.8 °F - N/A% 30.16 in 4.0 mi East 8.1 mph 19.6 mph N/A   Haze
10:53 AM 82.0 °F - N/A% 30.14 in 10.0 mi East 11.5 mph 18.4 mph N/A   Mostly Cloudy
11:11 AM 80.6 °F - N/A% 30.14 in 8.0 mi ESE 17.3 mph 24.2 mph N/A   Overcast
11:22 AM 78.8 °F - N/A% 30.14 in 4.0 mi ESE 10.4 mph - N/A   Haze
11:53 AM 81.0 °F - N/A% 30.12 in 10.0 mi East 5.8 mph - N/A   Overcast
12:53 PM 82.9 °F - N/A% 30.09 in 10.0 mi East 8.1 mph 17.3 mph N/A   Overcast
1:02 PM 84.2 °F - N/A% 30.08 in 10.0 mi East 12.7 mph 18.4 mph N/A   Overcast
1:33 PM 78.8 °F - N/A% 30.07 in 4.0 mi ESE 8.1 mph 27.6 mph N/A   Haze
1:53 PM 82.9 °F - N/A% 30.07 in 10.0 mi East 18.4 mph 24.2 mph N/A   Overcast
2:53 PM 82.0 °F - N/A% 30.05 in 10.0 mi ESE 12.7 mph - N/A   Mostly Cloudy
3:53 PM 82.9 °F - N/A% 30.05 in 10.0 mi ESE 11.5 mph - N/A   Partly Cloudy
4:53 PM 82.0 °F - N/A% 30.06 in 10.0 mi ESE 10.4 mph - N/A   Partly Cloudy
5:53 PM 81.0 °F - N/A% 30.06 in 10.0 mi ESE 11.5 mph - N/A   Scattered Clouds
6:53 PM 81.0 °F - N/A% 30.08 in 7.0 mi East 10.4 mph 19.6 mph N/A   Overcast
7:53 PM 80.1 °F - N/A% 30.09 in 10.0 mi East 5.8 mph - N/A   Mostly Cloudy
8:53 PM 78.1 °F - N/A% 30.11 in 10.0 mi East 11.5 mph - N/A   Partly Cloudy
9:53 PM 80.1 °F - N/A% 30.11 in 9.0 mi East 9.2 mph - N/A   Mostly Cloudy
10:53 PM 80.1 °F - N/A% 30.10 in 10.0 mi East 13.8 mph 23.0 mph N/A   Scattered Clouds
11:48 PM 78.8 °F - N/A% 30.09 in 10.0 mi East 13.8 mph 25.3 mph N/A   Mostly Cloudy
11:53 PM 79.0 °F - N/A% 30.09 in 10.0 mi East 12.7 mph 20.7 mph N/A   Mostly Cloudy